Location: Cz?stochówka
(50.8142°N, 19.0915°E)
Time: 19:27:00
(UTC+00:00)

Thor Agena Rocket - Pass Details

Date: 13 January 2026
Orbit: 755 x 802 km, 99.1° (Epoch: 13 February)

Event Time Altitude Azimuth Distance (km) Brightness Sun altitude
Rises 05:04:00 0° 18° (NNE) 3,237 6.8 -14.7°
Reaches altitude 10° 05:06:20 10° 22° (NNE) 2,311 6.0 -14.3°
Maximum altitude 05:11:22 62° 103° (ESE) 865 4.1 -13.6°
Drops below altitude 10° 05:16:26 10° 184° (S) 2,322 6.2 -12.8°
Sets 05:18:47 0° 188° (S) 3,253 6.9 -12.5°
